Location: Unspecified
(0.0000°N, 0.0000°E)
Time: 16:23:01
(UTC+00:00)

Vanguard 2 Rocket - Pass Details

Date: 22 November 2019
Orbit: 554 x 3326 km, 32.9° (Epoch: 13 December)

Event Time Altitude Azimuth Distance (km) Brightness Sun altitude
Rises 06:21:07 0° 320° (NW) 4,145 9.7 8.2°
Reaches altitude 10° 06:23:35 10° 327° (NNW) 3,464 9.4 8.8°
Maximum altitude 06:32:36 50° 40° (NE) 2,456 9.4 10.9°
Drops below altitude 10° 06:47:59 10° 110° (ESE) 5,739 14.2 14.5°
Sets 06:53:23 0° 115° (ESE) 7,042 13.3 15.8°
